Location: Jefferson
(30.9666°N, 81.7901°W)
Time: 22:11:19
(UTC+00:00)

Hubble Space Telescope - Pass Details

Date: 29 September 2024
Orbit: 504 x 508 km, 28.5° (Epoch: 06 October)

Event Time Altitude Azimuth Distance (km) Brightness Sun altitude
Exits shadow 10:16:08 24° 241° (WSW) 1,069 1.7 -14.5°
Maximum altitude 10:18:15 53° 173° (S) 616 1.0 -14.0°
Drops below altitude 10° 10:22:04 10° 96° (E) 1,698 4.7 -13.2°
Sets 10:24:19 0° 91° (E) 2,582 6.3 -12.7°
